Time,TemperatureF,DewpointF,PressureIn,WindDirection,WindDirectionDegrees,WindSpeedMPH,WindSpeedGustMPH,Humidity,HourlyPrecipIn,Conditions,Clouds,dailyrainin,SoftwareType,DateUTC
2013-02-20 00:00:00,24.4,16.7,29.94,WSW,255,13.0,17.0,72,0.00,,,0.15,WeatherCatV1.10B1784,2013-02-20 05:00:00,
2013-02-20 00:05:00,24.2,16.5,29.94,West,276,15.0,22.0,72,0.00,,,0.00,WeatherCatV1.10B1784,2013-02-20 05:05:00,
2013-02-20 00:10:00,24.0,16.3,29.94,West,275,6.0,9.0,72,0.00,,,0.00,WeatherCatV1.10B1784,2013-02-20 05:10:00,
2013-02-20 00:15:00,23.8,16.4,29.94,West,276,9.0,13.0,73,0.00,,,0.00,WeatherCatV1.10B1784,2013-02-20 05:15:00,
2013-02-20 00:20:00,23.5,16.8,29.95,West,264,14.0,16.0,75,0.00,,,0.00,WeatherCatV1.10B1784,2013-02-20 05:20:00,
2013-02-20 00:25:00,23.1,17.6,29.94,WNW,289,6.0,19.0,79,0.00,,,0.00,WeatherCatV1.10B1784,2013-02-20 05:25:00,
2013-02-20 00:30:00,22.6,17.7,29.94,WSW,248,8.0,15.0,81,0.00,,,0.00,WeatherCatV1.10B1784,2013-02-20 05:30:00,
2013-02-20 00:35:00,22.4,17.8,29.95,NW,311,7.0,13.0,82,0.00,,,0.00,WeatherCatV1.10B1784,2013-02-20 05:35:00,
2013-02-20 00:40:00,22.1,17.7,29.95,WSW,254,11.0,11.0,83,0.00,,,0.00,WeatherCatV1.10B1784,2013-02-20 05:40:00,
2013-02-20 00:45:00,21.8,18.0,29.95,WNW,288,9.0,14.0,85,0.00,,,0.00,WeatherCatV1.10B1784,2013-02-20 05:45:00,
2013-02-20 00:50:00,21.4,17.9,29.95,West,277,8.0,12.0,86,0.00,,,0.00,WeatherCatV1.10B1784,2013-02-20 05:50:00,
2013-02-20 00:55:00,21.2,17.7,29.95,WNW,285,4.0,7.0,86,0.00,,,0.00,WeatherCatV1.10B1784,2013-02-20 05:55:00,
2013-02-20 01:00:00,21.1,17.3,29.95,West,267,7.0,13.0,85,0.00,,,0.00,WeatherCatV1.10B1784,2013-02-20 06:00:00,
2013-02-20 01:05:00,21.2,16.9,29.96,West,266,9.0,10.0,83,0.00,,,0.00,WeatherCatV1.10B1784,2013-02-20 06:05:00,
2013-02-20 01:10:00,21.2,16.6,29.96,West,270,6.0,10.0,82,0.00,,,0.00,WeatherCatV1.10B1784,2013-02-20 06:10:00,
2013-02-20 01:15:00,21.2,16.3,29.96,WSW,253,6.0,9.0,81,0.00,,,0.00,WeatherCatV1.10B1784,2013-02-20 06:15:00,
2013-02-20 01:20:00,21.2,15.7,29.96,West,274,12.0,21.0,79,0.00,,,0.00,WeatherCatV1.10B1784,2013-02-20 06:20:00,
2013-02-20 01:25:00,21.2,15.7,29.97,West,266,7.0,12.0,79,0.00,,,0.00,WeatherCatV1.10B1784,2013-02-20 06:25:00,
2013-02-20 01:30:00,21.2,16.0,29.97,West,264,8.0,11.0,80,0.00,,,0.00,WeatherCatV1.10B1784,2013-02-20 06:30:00,
2013-02-20 01:35:00,21.2,16.0,29.97,WSW,248,9.0,9.0,80,0.00,,,0.00,WeatherCatV1.10B1784,2013-02-20 06:35:00,
2013-02-20 01:40:00,21.0,15.8,29.97,West,259,12.0,14.0,80,0.00,,,0.00,WeatherCatV1.10B1784,2013-02-20 06:40:00,
2013-02-20 01:45:00,20.9,15.7,29.97,West,278,5.0,10.0,80,0.00,,,0.00,WeatherCatV1.10B1784,2013-02-20 06:45:00,
2013-02-20 01:50:00,20.9,15.4,29.97,WNW,297,17.0,17.0,79,0.00,,,0.00,WeatherCatV1.10B1784,2013-02-20 06:50:00,
2013-02-20 01:55:00,20.9,15.1,29.97,WSW,238,7.0,11.0,78,0.00,,,0.00,WeatherCatV1.10B1784,2013-02-20 06:55:00,
2013-02-20 02:00:00,21.0,14.9,29.97,WNW,290,6.0,12.0,77,0.00,,,0.00,WeatherCatV1.10B1784,2013-02-20 07:00:00,
2013-02-20 02:05:00,21.0,15.2,29.97,WSW,257,4.0,9.0,78,0.00,,,0.00,WeatherCatV1.10B1784,2013-02-20 07:05:00,
2013-02-20 02:10:00,20.9,15.4,29.97,West,264,9.0,13.0,79,0.00,,,0.00,WeatherCatV1.10B1784,2013-02-20 07:10:00,
2013-02-20 02:15:00,20.8,15.3,29.97,WNW,291,5.0,9.0,79,0.00,,,0.00,WeatherCatV1.10B1784,2013-02-20 07:15:00,
2013-02-20 02:20:00,20.7,16.1,29.97,West,273,7.0,13.0,82,0.00,,,0.00,WeatherCatV1.10B1784,2013-02-20 07:20:00,
2013-02-20 02:25:00,20.3,16.0,29.97,West,259,5.0,10.0,83,0.00,,,0.00,WeatherCatV1.10B1784,2013-02-20 07:25:00,
2013-02-20 02:30:00,20.1,15.5,29.97,WSW,253,5.0,12.0,82,0.00,,,0.00,WeatherCatV1.10B1784,2013-02-20 07:30:00,
2013-02-20 02:35:00,20.0,15.7,29.97,WSW,256,11.0,17.0,83,0.00,,,0.00,WeatherCatV1.10B1784,2013-02-20 07:35:00,
2013-02-20 02:40:00,19.9,15.3,29.97,NW,322,14.0,15.0,82,0.00,,,0.00,WeatherCatV1.10B1784,2013-02-20 07:40:00,
2013-02-20 02:45:00,19.8,15.2,29.97,West,263,6.0,14.0,82,0.00,,,0.00,WeatherCatV1.10B1784,2013-02-20 07:45:00,
2013-02-20 02:50:00,19.7,15.1,29.97,WNW,290,10.0,16.0,82,0.00,,,0.00,WeatherCatV1.10B1784,2013-02-20 07:50:00,
2013-02-20 02:55:00,19.7,15.1,29.97,WNW,295,1.0,11.0,82,0.00,,,0.00,WeatherCatV1.10B1784,2013-02-20 07:55:00,
2013-02-20 03:00:00,19.6,15.0,29.98,WSW,250,9.0,17.0,82,0.00,,,0.00,WeatherCatV1.10B1784,2013-02-20 08:00:00,
2013-02-20 03:05:00,19.5,15.2,29.98,West,281,3.0,9.0,83,0.00,,,0.00,WeatherCatV1.10B1784,2013-02-20 08:05:00,
2013-02-20 03:10:00,19.5,14.9,29.98,West,273,14.0,14.0,82,0.00,,,0.00,WeatherCatV1.10B1784,2013-02-20 08:10:00,
2013-02-20 03:15:00,19.4,15.1,29.98,WNW,295,6.0,12.0,83,0.00,,,0.00,WeatherCatV1.10B1784,2013-02-20 08:15:00,
2013-02-20 03:20:00,19.3,15.3,29.98,WSW,257,3.0,4.0,84,0.00,,,0.00,WeatherCatV1.10B1784,2013-02-20 08:20:00,
2013-02-20 03:25:00,19.3,15.3,29.98,WSW,249,5.0,7.0,84,0.00,,,0.00,WeatherCatV1.10B1784,2013-02-20 08:25:00,
2013-02-20 03:30:00,19.2,15.4,29.98,WNW,286,3.0,14.0,85,0.00,,,0.00,WeatherCatV1.10B1784,2013-02-20 08:30:00,
2013-02-20 03:35:00,19.0,15.2,29.98,WNW,295,7.0,13.0,85,0.00,,,0.00,WeatherCatV1.10B1784,2013-02-20 08:35:00,
2013-02-20 03:40:00,18.9,15.2,29.99,NNW,332,7.0,10.0,85,0.00,,,0.00,WeatherCatV1.10B1784,2013-02-20 08:40:00,
2013-02-20 03:45:00,18.9,14.9,29.99,West,276,7.0,10.0,84,0.00,,,0.00,WeatherCatV1.10B1784,2013-02-20 08:45:00,
2013-02-20 03:50:00,19.0,15.0,29.99,West,274,7.0,7.0,84,0.00,,,0.00,WeatherCatV1.10B1784,2013-02-20 08:50:00,
2013-02-20 03:55:00,19.0,15.0,29.99,NNE,20,2.0,8.0,84,0.00,,,0.00,WeatherCatV1.10B1784,2013-02-20 08:55:00,
2013-02-20 04:00:00,18.6,14.6,29.99,WNW,296,15.0,15.0,84,0.00,,,0.00,WeatherCatV1.10B1784,2013-02-20 09:00:00,
2013-02-20 04:05:00,18.4,14.7,30.00,WNW,290,5.0,8.0,85,0.00,,,0.00,WeatherCatV1.10B1784,2013-02-20 09:05:00,
2013-02-20 04:10:00,18.3,14.6,30.00,West,281,4.0,11.0,85,0.00,,,0.00,WeatherCatV1.10B1784,2013-02-20 09:10:00,
2013-02-20 04:15:00,18.3,14.3,30.00,West,267,8.0,14.0,84,0.00,,,0.00,WeatherCatV1.10B1784,2013-02-20 09:15:00,
2013-02-20 04:20:00,18.2,13.9,30.00,West,266,5.0,12.0,83,0.00,,,0.00,WeatherCatV1.10B1784,2013-02-20 09:20:00,
2013-02-20 04:25:00,18.2,13.4,30.00,NW,311,5.0,11.0,81,0.00,,,0.00,WeatherCatV1.10B1784,2013-02-20 09:25:00,
2013-02-20 04:30:00,18.4,12.7,30.00,West,262,8.0,11.0,78,0.00,,,0.00,WeatherCatV1.10B1784,2013-02-20 09:30:00,
2013-02-20 04:35:00,18.5,13.1,30.01,West,281,9.0,10.0,79,0.00,,,0.00,WeatherCatV1.10B1784,2013-02-20 09:35:00,
2013-02-20 04:40:00,18.5,11.6,30.01,West,269,10.0,21.0,74,0.00,,,0.00,WeatherCatV1.10B1784,2013-02-20 09:40:00,
2013-02-20 04:45:00,18.6,11.4,30.01,WSW,255,5.0,20.0,73,0.00,,,0.00,WeatherCatV1.10B1784,2013-02-20 09:45:00,
2013-02-20 04:50:00,18.6,11.4,30.01,WSW,253,16.0,18.0,73,0.00,,,0.00,WeatherCatV1.10B1784,2013-02-20 09:50:00,
2013-02-20 04:55:00,18.6,11.1,30.01,West,271,13.0,17.0,72,0.00,,,0.00,WeatherCatV1.10B1784,2013-02-20 09:55:00,
2013-02-20 05:00:00,18.6,10.8,30.02,WNW,298,12.0,16.0,71,0.00,,,0.00,WeatherCatV1.10B1784,2013-02-20 10:00:00,
2013-02-20 05:05:00,18.6,11.1,30.02,West,280,5.0,14.0,72,0.00,,,0.00,WeatherCatV1.10B1784,2013-02-20 10:05:00,
2013-02-20 05:10:00,18.5,11.3,30.02,West,271,10.0,14.0,73,0.00,,,0.00,WeatherCatV1.10B1784,2013-02-20 10:10:00,
2013-02-20 05:15:00,18.5,11.0,30.02,WNW,290,8.0,15.0,72,0.00,,,0.00,WeatherCatV1.10B1784,2013-02-20 10:15:00,
2013-02-20 05:20:00,18.5,10.7,30.03,WSW,257,8.0,16.0,71,0.00,,,0.00,WeatherCatV1.10B1784,2013-02-20 10:20:00,
2013-02-20 05:25:00,18.5,10.7,30.03,SW,228,8.0,15.0,71,0.00,,,0.00,WeatherCatV1.10B1784,2013-02-20 10:25:00,
2013-02-20 05:30:00,18.5,10.7,30.03,WSW,257,6.0,15.0,71,0.00,,,0.00,WeatherCatV1.10B1784,2013-02-20 10:30:00,
2013-02-20 05:35:00,18.5,10.4,30.03,West,273,11.0,14.0,70,0.00,,,0.00,WeatherCatV1.10B1784,2013-02-20 10:35:00,
2013-02-20 05:40:00,18.5,10.4,30.03,West,270,10.0,13.0,70,0.00,,,0.00,WeatherCatV1.10B1784,2013-02-20 10:40:00,
2013-02-20 05:45:00,18.5,10.7,30.03,West,267,7.0,12.0,71,0.00,,,0.00,WeatherCatV1.10B1784,2013-02-20 10:45:00,
2013-02-20 05:50:00,18.5,10.7,30.03,SW,235,8.0,9.0,71,0.00,,,0.00,WeatherCatV1.10B1784,2013-02-20 10:50:00,
2013-02-20 05:55:00,18.5,10.7,30.03,WNW,294,5.0,12.0,71,0.00,,,0.00,WeatherCatV1.10B1784,2013-02-20 10:55:00,
2013-02-20 06:00:00,18.4,10.6,30.04,West,262,6.0,18.0,71,0.00,,,0.00,WeatherCatV1.10B1784,2013-02-20 11:00:00,
2013-02-20 06:05:00,18.4,10.9,30.04,WSW,257,8.0,16.0,72,0.00,,,0.00,WeatherCatV1.10B1784,2013-02-20 11:05:00,
2013-02-20 06:10:00,18.4,11.2,30.04,West,276,14.0,16.0,73,0.00,,,0.00,WeatherCatV1.10B1784,2013-02-20 11:10:00,
2013-02-20 06:15:00,18.3,11.4,30.04,WNW,292,6.0,9.0,74,0.00,,,0.00,WeatherCatV1.10B1784,2013-02-20 11:15:00,
2013-02-20 06:20:00,18.2,11.3,30.04,West,277,9.0,23.0,74,0.00,,,0.00,WeatherCatV1.10B1784,2013-02-20 11:20:00,
2013-02-20 06:25:00,18.2,11.3,30.05,West,274,4.0,8.0,74,0.00,,,0.00,WeatherCatV1.10B1784,2013-02-20 11:25:00,
2013-02-20 06:30:00,18.3,11.4,30.05,WNW,284,5.0,10.0,74,0.00,,,0.00,WeatherCatV1.10B1784,2013-02-20 11:30:00,
2013-02-20 06:35:00,18.3,11.7,30.05,NW,307,7.0,11.0,75,0.00,,,0.00,WeatherCatV1.10B1784,2013-02-20 11:35:00,
2013-02-20 06:40:00,18.2,11.6,30.05,WNW,284,12.0,12.0,75,0.00,,,0.00,WeatherCatV1.10B1784,2013-02-20 11:40:00,
2013-02-20 06:45:00,18.2,12.2,30.05,WNW,284,5.0,11.0,77,0.00,,,0.00,WeatherCatV1.10B1784,2013-02-20 11:45:00,
2013-02-20 06:50:00,18.2,11.9,30.05,West,260,8.0,9.0,76,0.00,,,0.00,WeatherCatV1.10B1784,2013-02-20 11:50:00,
2013-02-20 06:55:00,18.2,11.9,30.05,WNW,302,3.0,8.0,76,0.00,,,0.00,WeatherCatV1.10B1784,2013-02-20 11:55:00,
2013-02-20 07:00:00,18.2,11.9,30.05,West,281,6.0,11.0,76,0.00,,,0.00,WeatherCatV1.10B1784,2013-02-20 12:00:00,
2013-02-20 07:05:00,18.2,11.9,30.06,West,266,7.0,12.0,76,0.00,,,0.00,WeatherCatV1.10B1784,2013-02-20 12:05:00,
2013-02-20 07:10:00,18.1,11.8,30.06,WNW,293,6.0,9.0,76,0.00,,,0.00,WeatherCatV1.10B1784,2013-02-20 12:10:00,
2013-02-20 07:15:00,18.2,11.9,30.06,WSW,248,5.0,7.0,76,0.00,,,0.00,WeatherCatV1.10B1784,2013-02-20 12:15:00,
2013-02-20 07:20:00,18.2,11.9,30.07,WNW,290,19.0,23.0,76,0.00,,,0.00,WeatherCatV1.10B1784,2013-02-20 12:20:00,
2013-02-20 07:25:00,18.1,11.8,30.07,WNW,287,12.0,18.0,76,0.00,,,0.00,WeatherCatV1.10B1784,2013-02-20 12:25:00,
2013-02-20 07:30:00,18.1,11.2,30.07,SW,231,5.0,16.0,74,0.00,,,0.00,WeatherCatV1.10B1784,2013-02-20 12:30:00,
2013-02-20 07:35:00,18.2,10.7,30.07,West,262,7.0,13.0,72,0.00,,,0.00,WeatherCatV1.10B1784,2013-02-20 12:35:00,
2013-02-20 07:40:00,18.2,10.7,30.07,West,262,5.0,12.0,72,0.00,,,0.00,WeatherCatV1.10B1784,2013-02-20 12:40:00,
2013-02-20 07:45:00,18.3,10.8,30.07,WNW,295,8.0,17.0,72,0.00,,,0.00,WeatherCatV1.10B1784,2013-02-20 12:45:00,
2013-02-20 07:50:00,18.2,10.7,30.07,WSW,252,7.0,16.0,72,0.00,,,0.00,WeatherCatV1.10B1784,2013-02-20 12:50:00,
2013-02-20 07:55:00,18.3,10.5,30.07,West,262,13.0,16.0,71,0.00,,,0.00,WeatherCatV1.10B1784,2013-02-20 12:55:00,
2013-02-20 08:00:00,18.3,10.2,30.08,North,353,7.0,21.0,70,0.00,,,0.00,WeatherCatV1.10B1784,2013-02-20 13:00:00,
2013-02-20 08:05:00,18.3,10.5,30.08,NW,311,13.0,16.0,71,0.00,,,0.00,WeatherCatV1.10B1784,2013-02-20 13:05:00,
2013-02-20 08:10:00,18.3,10.2,30.08,West,278,5.0,15.0,70,0.00,,,0.00,WeatherCatV1.10B1784,2013-02-20 13:10:00,
2013-02-20 08:15:00,18.4,10.3,30.08,West,271,15.0,17.0,70,0.00,,,0.00,WeatherCatV1.10B1784,2013-02-20 13:15:00,
2013-02-20 08:20:00,18.4,10.6,30.08,WSW,253,7.0,10.0,71,0.00,,,0.00,WeatherCatV1.10B1784,2013-02-20 13:20:00,
2013-02-20 08:25:00,18.3,10.5,30.08,West,278,16.0,20.0,71,0.00,,,0.00,WeatherCatV1.10B1784,2013-02-20 13:25:00,
2013-02-20 08:30:00,18.3,10.8,30.08,West,274,9.0,14.0,72,0.00,,,0.00,WeatherCatV1.10B1784,2013-02-20 13:30:00,
2013-02-20 08:35:00,18.3,11.1,30.08,West,278,5.0,13.0,73,0.00,,,0.00,WeatherCatV1.10B1784,2013-02-20 13:35:00,
2013-02-20 08:40:00,18.3,11.7,30.08,WSW,255,5.0,12.0,75,0.00,,,0.00,WeatherCatV1.10B1784,2013-02-20 13:40:00,
2013-02-20 08:45:00,18.4,12.1,30.08,NW,311,3.0,10.0,76,0.00,,,0.00,WeatherCatV1.10B1784,2013-02-20 13:45:00,
2013-02-20 08:50:00,18.3,12.0,30.09,WSW,238,9.0,12.0,76,0.00,,,0.00,WeatherCatV1.10B1784,2013-02-20 13:50:00,
2013-02-20 08:55:00,18.2,11.6,30.09,WNW,293,9.0,14.0,75,0.00,,,0.00,WeatherCatV1.10B1784,2013-02-20 13:55:00,
2013-02-20 09:00:00,18.5,11.6,30.09,West,269,12.0,16.0,74,0.00,,,0.00,WeatherCatV1.10B1784,2013-02-20 14:00:00,
2013-02-20 09:05:00,18.6,11.1,30.09,WNW,294,11.0,23.0,72,0.00,,,0.00,WeatherCatV1.10B1784,2013-02-20 14:05:00,
2013-02-20 09:10:00,18.7,11.2,30.09,WSW,255,7.0,11.0,72,0.00,,,0.00,WeatherCatV1.10B1784,2013-02-20 14:10:00,
2013-02-20 09:15:00,18.8,11.6,30.09,West,259,17.0,22.0,73,0.00,,,0.00,WeatherCatV1.10B1784,2013-02-20 14:15:00,
2013-02-20 09:20:00,18.7,11.8,30.09,WNW,290,13.0,18.0,74,0.00,,,0.00,WeatherCatV1.10B1784,2013-02-20 14:20:00,
2013-02-20 09:25:00,18.8,11.9,30.09,West,280,8.0,14.0,74,0.00,,,0.00,WeatherCatV1.10B1784,2013-02-20 14:25:00,
2013-02-20 09:30:00,18.9,12.3,30.09,WSW,254,5.0,7.0,75,0.00,,,0.00,WeatherCatV1.10B1784,2013-02-20 14:30:00,
2013-02-20 09:35:00,19.3,13.0,30.09,West,266,6.0,15.0,76,0.00,,,0.00,WeatherCatV1.10B1784,2013-02-20 14:35:00,
2013-02-20 09:40:00,19.3,12.7,30.09,SW,232,16.0,17.0,75,0.00,,,0.00,WeatherCatV1.10B1784,2013-02-20 14:40:00,
2013-02-20 09:45:00,19.0,12.4,30.09,WNW,300,4.0,14.0,75,0.00,,,0.00,WeatherCatV1.10B1784,2013-02-20 14:45:00,
2013-02-20 09:48:00,19.1,12.8,30.09,West,276,9.0,10.0,76,0.00,,,0.00,WeatherCatV1.10B1784,2013-02-20 14:48:00,
2013-02-20 09:53:00,19.0,12.4,30.09,WNW,298,7.0,11.0,75,0.00,,,0.00,WeatherCatV1.10B1784,2013-02-20 14:53:00,
2013-02-20 09:58:00,18.9,12.3,30.09,WSW,253,8.0,14.0,75,0.00,,,0.00,WeatherCatV1.10B1784,2013-02-20 14:58:00,
2013-02-20 10:03:00,18.9,12.6,30.09,WNW,291,9.0,13.0,76,0.00,,,0.00,WeatherCatV1.10B1784,2013-02-20 15:03:00,
2013-02-20 10:08:00,19.1,12.8,30.09,WSW,240,12.0,12.0,76,0.00,,,0.00,WeatherCatV1.10B1784,2013-02-20 15:08:00,
2013-02-20 10:13:00,19.3,11.8,30.08,WSW,255,13.0,14.0,72,0.00,,,0.00,WeatherCatV1.10B1784,2013-02-20 15:13:00,
2013-02-20 10:18:00,19.6,11.4,30.09,WSW,255,7.0,20.0,70,0.00,,,0.00,WeatherCatV1.10B1784,2013-02-20 15:18:00,
2013-02-20 10:23:00,19.8,11.9,30.09,West,264,5.0,11.0,71,0.00,,,0.00,WeatherCatV1.10B1784,2013-02-20 15:23:00,
2013-02-20 10:28:00,20.0,12.8,30.09,WNW,295,5.0,13.0,73,0.00,,,0.00,WeatherCatV1.10B1784,2013-02-20 15:28:00,
2013-02-20 10:33:00,20.2,11.7,30.09,WSW,238,19.0,20.0,69,0.00,,,0.00,WeatherCatV1.10B1784,2013-02-20 15:33:00,
2013-02-20 10:38:00,20.5,11.0,30.09,WNW,295,5.0,9.0,66,0.00,,,0.00,WeatherCatV1.10B1784,2013-02-20 15:38:00,
2013-02-20 10:43:00,20.9,10.3,30.09,WSW,256,9.0,16.0,63,0.00,,,0.00,WeatherCatV1.10B1784,2013-02-20 15:43:00,
2013-02-20 10:48:00,21.1,10.5,30.09,West,281,7.0,17.0,63,0.00,,,0.00,WeatherCatV1.10B1784,2013-02-20 15:48:00,
2013-02-20 10:53:00,21.2,10.6,30.09,WSW,250,9.0,18.0,63,0.00,,,0.00,WeatherCatV1.10B1784,2013-02-20 15:53:00,
2013-02-20 10:58:00,21.3,10.7,30.10,West,277,11.0,18.0,63,0.00,,,0.00,WeatherCatV1.10B1784,2013-02-20 15:58:00,
2013-02-20 11:03:00,20.9,9.6,30.10,West,271,15.0,21.0,61,0.00,,,0.00,WeatherCatV1.10B1784,2013-02-20 16:03:00,
2013-02-20 11:08:00,20.7,9.8,30.10,WSW,248,13.0,13.0,62,0.00,,,0.00,WeatherCatV1.10B1784,2013-02-20 16:08:00,
2013-02-20 11:13:00,20.8,9.1,30.10,WSW,253,12.0,18.0,60,0.00,,,0.00,WeatherCatV1.10B1784,2013-02-20 16:13:00,
2013-02-20 11:18:00,20.8,9.5,30.10,WNW,290,15.0,15.0,61,0.00,,,0.00,WeatherCatV1.10B1784,2013-02-20 16:18:00,
2013-02-20 11:23:00,20.9,9.6,30.10,WNW,290,12.0,23.0,61,0.00,,,0.00,WeatherCatV1.10B1784,2013-02-20 16:23:00,
2013-02-20 11:28:00,20.8,9.9,30.10,West,280,6.0,10.0,62,0.00,,,0.00,WeatherCatV1.10B1784,2013-02-20 16:28:00,
2013-02-20 11:33:00,21.1,10.5,30.10,West,259,7.0,9.0,63,0.00,,,0.00,WeatherCatV1.10B1784,2013-02-20 16:33:00,
2013-02-20 11:38:00,21.1,10.1,30.10,WNW,293,7.0,8.0,62,0.00,,,0.00,WeatherCatV1.10B1784,2013-02-20 16:38:00,
2013-02-20 11:43:00,20.7,11.8,30.11,West,281,11.0,17.0,68,0.00,,,0.00,WeatherCatV1.10B1784,2013-02-20 16:43:00,
2013-02-20 11:48:00,20.3,13.1,30.11,WSW,253,10.0,11.0,73,0.00,,,0.00,WeatherCatV1.10B1784,2013-02-20 16:48:00,
2013-02-20 11:53:00,20.1,13.2,30.11,West,278,6.0,15.0,74,0.00,,,0.00,WeatherCatV1.10B1784,2013-02-20 16:53:00,
2013-02-20 11:58:00,20.2,12.6,30.11,WSW,245,10.0,16.0,72,0.00,,,0.00,WeatherCatV1.10B1784,2013-02-20 16:58:00,
2013-02-20 12:03:00,20.5,12.6,30.11,West,274,4.0,10.0,71,0.00,,,0.00,WeatherCatV1.10B1784,2013-02-20 17:03:00,
2013-02-20 12:08:00,20.9,12.7,30.11,WSW,252,4.0,11.0,70,0.00,,,0.00,WeatherCatV1.10B1784,2013-02-20 17:08:00,
2013-02-20 12:13:00,20.8,11.9,30.11,West,264,10.0,16.0,68,0.00,,,0.00,WeatherCatV1.10B1784,2013-02-20 17:13:00,
2013-02-20 12:18:00,20.6,12.1,30.11,WNW,293,9.0,13.0,69,0.00,,,0.00,WeatherCatV1.10B1784,2013-02-20 17:18:00,
2013-02-20 12:23:00,20.8,12.3,30.11,WNW,287,6.0,12.0,69,0.00,,,0.00,WeatherCatV1.10B1784,2013-02-20 17:23:00,
2013-02-20 12:28:00,21.0,12.1,30.11,West,277,12.0,13.0,68,0.00,,,0.00,WeatherCatV1.10B1784,2013-02-20 17:28:00,
2013-02-20 12:33:00,21.0,13.1,30.11,West,274,11.0,19.0,71,0.00,,,0.00,WeatherCatV1.10B1784,2013-02-20 17:33:00,
2013-02-20 12:38:00,20.8,12.9,30.11,WSW,250,9.0,16.0,71,0.00,,,0.00,WeatherCatV1.10B1784,2013-02-20 17:38:00,
2013-02-20 12:43:00,21.1,13.8,30.11,WNW,283,3.0,7.0,73,0.00,,,0.00,WeatherCatV1.10B1784,2013-02-20 17:43:00,
2013-02-20 12:48:00,21.5,13.3,30.11,WNW,283,10.0,14.0,70,0.00,,,0.00,WeatherCatV1.10B1784,2013-02-20 17:48:00,
2013-02-20 12:53:00,21.5,12.3,30.11,SW,215,8.0,13.0,67,0.00,,,0.00,WeatherCatV1.10B1784,2013-02-20 17:53:00,
2013-02-20 12:58:00,21.3,11.7,30.11,WSW,252,9.0,18.0,66,0.00,,,0.00,WeatherCatV1.10B1784,2013-02-20 17:58:00,
2013-02-20 13:03:00,21.4,11.8,30.11,WNW,288,12.0,18.0,66,0.00,,,0.00,WeatherCatV1.10B1784,2013-02-20 18:03:00,
2013-02-20 13:08:00,21.4,11.5,30.12,WNW,286,15.0,20.0,65,0.00,,,0.00,WeatherCatV1.10B1784,2013-02-20 18:08:00,
2013-02-20 13:13:00,21.0,12.5,30.11,SW,235,11.0,11.0,69,0.00,,,0.00,WeatherCatV1.10B1784,2013-02-20 18:13:00,
2013-02-20 13:18:00,20.7,14.1,30.12,West,270,6.0,8.0,75,0.00,,,0.00,WeatherCatV1.10B1784,2013-02-20 18:18:00,
2013-02-20 13:23:00,20.6,13.7,30.11,WSW,248,7.0,10.0,74,0.00,,,0.00,WeatherCatV1.10B1784,2013-02-20 18:23:00,
2013-02-20 13:28:00,20.9,13.0,30.11,West,266,5.0,12.0,71,0.00,,,0.00,WeatherCatV1.10B1784,2013-02-20 18:28:00,
2013-02-20 13:33:00,21.3,12.4,30.12,WNW,283,13.0,16.0,68,0.00,,,0.00,WeatherCatV1.10B1784,2013-02-20 18:33:00,
2013-02-20 13:38:00,21.5,12.9,30.12,NW,308,7.0,13.0,69,0.00,,,0.00,WeatherCatV1.10B1784,2013-02-20 18:38:00,
2013-02-20 13:43:00,21.7,12.1,30.12,WSW,242,8.0,23.0,66,0.00,,,0.00,WeatherCatV1.10B1784,2013-02-20 18:43:00,
2013-02-20 13:48:00,21.5,10.9,30.12,WSW,257,13.0,18.0,63,0.00,,,0.00,WeatherCatV1.10B1784,2013-02-20 18:48:00,
2013-02-20 13:53:00,21.5,11.6,30.12,WSW,248,9.0,13.0,65,0.00,,,0.00,WeatherCatV1.10B1784,2013-02-20 18:53:00,
2013-02-20 13:58:00,21.6,12.0,30.12,West,262,14.0,14.0,66,0.00,,,0.00,WeatherCatV1.10B1784,2013-02-20 18:58:00,
2013-02-20 14:03:00,21.5,12.6,30.12,West,262,10.0,13.0,68,0.00,,,0.00,WeatherCatV1.10B1784,2013-02-20 19:03:00,
2013-02-20 14:08:00,21.4,13.2,30.13,WNW,291,9.0,11.0,70,0.00,,,0.00,WeatherCatV1.10B1784,2013-02-20 19:08:00,
2013-02-20 14:13:00,21.4,13.8,30.13,West,279,12.0,12.0,72,0.00,,,0.00,WeatherCatV1.10B1784,2013-02-20 19:13:00,
2013-02-20 14:18:00,20.9,14.8,30.14,West,266,6.0,14.0,77,0.00,,,0.00,WeatherCatV1.10B1784,2013-02-20 19:18:00,
2013-02-20 14:23:00,20.8,15.6,30.14,WNW,293,4.0,7.0,80,0.00,,,0.00,WeatherCatV1.10B1784,2013-02-20 19:23:00,
2013-02-20 14:28:00,20.6,15.1,30.14,WSW,256,6.0,17.0,79,0.00,,,0.00,WeatherCatV1.10B1784,2013-02-20 19:28:00,
2013-02-20 14:33:00,20.1,15.2,30.14,WNW,293,5.0,9.0,81,0.00,,,0.00,WeatherCatV1.10B1784,2013-02-20 19:33:00,
2013-02-20 14:38:00,20.2,15.9,30.14,West,277,7.0,12.0,83,0.00,,,0.00,WeatherCatV1.10B1784,2013-02-20 19:38:00,
2013-02-20 14:43:00,20.3,14.8,30.14,West,281,5.0,17.0,79,0.00,,,0.00,WeatherCatV1.10B1784,2013-02-20 19:43:00,
2013-02-20 14:48:00,20.7,14.7,30.14,West,263,15.0,21.0,77,0.00,,,0.00,WeatherCatV1.10B1784,2013-02-20 19:48:00,
2013-02-20 14:53:00,20.7,14.4,30.15,NW,306,9.0,14.0,76,0.00,,,0.00,WeatherCatV1.10B1784,2013-02-20 19:53:00,
2013-02-20 14:58:00,20.5,14.5,30.15,West,271,7.0,13.0,77,0.00,,,0.00,WeatherCatV1.10B1784,2013-02-20 19:58:00,
2013-02-20 15:03:00,20.8,14.1,30.15,WSW,253,7.0,13.0,75,0.00,,,0.00,WeatherCatV1.10B1784,2013-02-20 20:03:00,
2013-02-20 15:08:00,21.3,14.0,30.15,West,270,5.0,6.0,73,0.00,,,0.00,WeatherCatV1.10B1784,2013-02-20 20:08:00,
2013-02-20 15:13:00,21.5,13.6,30.15,WNW,285,9.0,14.0,71,0.00,,,0.00,WeatherCatV1.10B1784,2013-02-20 20:13:00,
2013-02-20 15:18:00,21.3,13.4,30.16,NW,309,6.0,11.0,71,0.00,,,0.00,WeatherCatV1.10B1784,2013-02-20 20:18:00,
2013-02-20 15:23:00,21.7,14.1,30.15,WNW,287,5.0,12.0,72,0.00,,,0.00,WeatherCatV1.10B1784,2013-02-20 20:23:00,
2013-02-20 15:28:00,21.6,14.3,30.15,WNW,302,6.0,12.0,73,0.00,,,0.00,WeatherCatV1.10B1784,2013-02-20 20:28:00,
2013-02-20 15:33:00,21.4,14.1,30.16,NNW,335,12.0,13.0,73,0.00,,,0.00,WeatherCatV1.10B1784,2013-02-20 20:33:00,
2013-02-20 15:39:00,21.4,14.7,30.16,West,260,9.0,10.0,75,0.00,,,0.00,WeatherCatV1.10B1784,2013-02-20 20:39:00,
2013-02-20 15:44:00,21.2,15.1,30.16,WNW,285,5.0,10.0,77,0.00,,,0.00,WeatherCatV1.10B1784,2013-02-20 20:44:00,
2013-02-20 15:49:00,20.7,16.1,30.16,WNW,293,6.0,10.0,82,0.00,,,0.00,WeatherCatV1.10B1784,2013-02-20 20:49:00,
2013-02-20 15:54:00,20.5,15.9,30.17,West,259,10.0,10.0,82,0.00,,,0.00,WeatherCatV1.10B1784,2013-02-20 20:54:00,
2013-02-20 15:59:00,20.5,15.9,30.17,WNW,285,1.0,8.0,82,0.00,,,0.00,WeatherCatV1.10B1784,2013-02-20 20:59:00,
2013-02-20 16:04:00,20.9,15.7,30.17,West,281,11.0,15.0,80,0.00,,,0.00,WeatherCatV1.10B1784,2013-02-20 21:04:00,
2013-02-20 16:09:00,20.9,14.8,30.17,WNW,282,7.0,13.0,77,0.00,,,0.00,WeatherCatV1.10B1784,2013-02-20 21:09:00,
2013-02-20 16:14:00,21.1,14.7,30.17,West,271,4.0,9.0,76,0.00,,,0.00,WeatherCatV1.10B1784,2013-02-20 21:14:00,
2013-02-20 16:19:00,21.2,14.5,30.18,WNW,291,3.0,11.0,75,0.00,,,0.00,WeatherCatV1.10B1784,2013-02-20 21:19:00,
2013-02-20 16:24:00,21.3,14.3,30.18,WSW,251,7.0,10.0,74,0.00,,,0.00,WeatherCatV1.10B1784,2013-02-20 21:24:00,
2013-02-20 16:29:00,21.3,14.3,30.18,West,259,8.0,12.0,74,0.00,,,0.00,WeatherCatV1.10B1784,2013-02-20 21:29:00,
2013-02-20 16:34:00,21.2,14.5,30.19,WSW,255,11.0,13.0,75,0.00,,,0.00,WeatherCatV1.10B1784,2013-02-20 21:34:00,
2013-02-20 16:39:00,21.3,14.9,30.19,West,281,8.0,13.0,76,0.00,,,0.00,WeatherCatV1.10B1784,2013-02-20 21:39:00,
2013-02-20 16:44:00,21.2,14.5,30.19,West,262,5.0,16.0,75,0.00,,,0.00,WeatherCatV1.10B1784,2013-02-20 21:44:00,
2013-02-20 16:49:00,21.2,15.4,30.19,WNW,283,5.0,7.0,78,0.00,,,0.00,WeatherCatV1.10B1784,2013-02-20 21:49:00,
2013-02-20 16:54:00,21.1,15.6,30.20,WNW,300,7.0,18.0,79,0.00,,,0.00,WeatherCatV1.10B1784,2013-02-20 21:54:00,
2013-02-20 16:59:00,20.9,15.1,30.20,West,262,6.0,10.0,78,0.00,,,0.00,WeatherCatV1.10B1784,2013-02-20 21:59:00,
2013-02-20 17:04:00,20.7,14.4,30.20,WNW,287,12.0,15.0,76,0.00,,,0.00,WeatherCatV1.10B1784,2013-02-20 22:04:00,
2013-02-20 17:09:00,20.8,14.5,30.20,West,276,2.0,10.0,76,0.00,,,0.00,WeatherCatV1.10B1784,2013-02-20 22:09:00,
2013-02-20 17:14:00,20.8,14.5,30.20,WSW,248,4.0,8.0,76,0.00,,,0.00,WeatherCatV1.10B1784,2013-02-20 22:14:00,
2013-02-20 17:19:00,20.9,14.2,30.21,WSW,248,5.0,11.0,75,0.00,,,0.00,WeatherCatV1.10B1784,2013-02-20 22:19:00,
2013-02-20 17:24:00,20.9,13.9,30.21,WNW,295,3.0,12.0,74,0.00,,,0.00,WeatherCatV1.10B1784,2013-02-20 22:24:00,
2013-02-20 17:29:00,20.9,13.9,30.21,WNW,283,4.0,10.0,74,0.00,,,0.00,WeatherCatV1.10B1784,2013-02-20 22:29:00,
2013-02-20 17:34:00,20.9,13.9,30.21,West,276,5.0,13.0,74,0.00,,,0.00,WeatherCatV1.10B1784,2013-02-20 22:34:00,
2013-02-20 17:39:00,20.8,13.8,30.21,WNW,285,11.0,12.0,74,0.00,,,0.00,WeatherCatV1.10B1784,2013-02-20 22:39:00,
2013-02-20 17:44:00,20.7,14.1,30.21,West,266,5.0,12.0,75,0.00,,,0.00,WeatherCatV1.10B1784,2013-02-20 22:44:00,
2013-02-20 17:49:00,20.7,14.1,30.21,West,273,4.0,9.0,75,0.00,,,0.00,WeatherCatV1.10B1784,2013-02-20 22:49:00,
2013-02-20 17:54:00,20.7,13.4,30.21,WNW,290,4.0,9.0,73,0.00,,,0.00,WeatherCatV1.10B1784,2013-02-20 22:54:00,
2013-02-20 17:59:00,20.7,13.7,30.21,NW,311,3.0,11.0,74,0.00,,,0.00,WeatherCatV1.10B1784,2013-02-20 22:59:00,
2013-02-20 18:04:00,20.7,13.7,30.21,WNW,285,8.0,11.0,74,0.00,,,0.00,WeatherCatV1.10B1784,2013-02-20 23:04:00,
2013-02-20 18:09:00,20.6,13.3,30.22,WSW,249,8.0,10.0,73,0.00,,,0.00,WeatherCatV1.10B1784,2013-02-20 23:09:00,
2013-02-20 18:14:00,20.6,13.3,30.22,West,280,5.0,8.0,73,0.00,,,0.00,WeatherCatV1.10B1784,2013-02-20 23:14:00,
2013-02-20 18:19:00,20.6,13.3,30.22,West,273,3.0,4.0,73,0.00,,,0.00,WeatherCatV1.10B1784,2013-02-20 23:19:00,
2013-02-20 18:24:00,20.6,13.3,30.22,WNW,285,3.0,11.0,73,0.00,,,0.00,WeatherCatV1.10B1784,2013-02-20 23:24:00,
2013-02-20 18:29:00,20.6,13.3,30.22,NW,315,4.0,6.0,73,0.00,,,0.00,WeatherCatV1.10B1784,2013-02-20 23:29:00,
2013-02-20 18:34:00,20.5,13.2,30.22,West,270,4.0,7.0,73,0.00,,,0.00,WeatherCatV1.10B1784,2013-02-20 23:34:00,
2013-02-20 18:39:00,20.4,13.1,30.22,West,276,6.0,10.0,73,0.00,,,0.00,WeatherCatV1.10B1784,2013-02-20 23:39:00,
2013-02-20 18:44:00,20.3,13.1,30.22,WSW,255,6.0,6.0,73,0.00,,,0.00,WeatherCatV1.10B1784,2013-02-20 23:44:00,
2013-02-20 18:49:00,20.2,13.0,30.22,WNW,302,7.0,9.0,73,0.00,,,0.00,WeatherCatV1.10B1784,2013-02-20 23:49:00,
2013-02-20 18:54:00,20.2,13.0,30.22,West,273,3.0,3.0,73,0.00,,,0.00,WeatherCatV1.10B1784,2013-02-20 23:54:00,
2013-02-20 18:59:00,20.1,12.9,30.22,NW,305,1.0,5.0,73,0.00,,,0.00,WeatherCatV1.10B1784,2013-02-20 23:59:00,
2013-02-20 19:04:00,20.1,12.9,30.22,WSW,256,3.0,11.0,73,0.00,,,0.00,WeatherCatV1.10B1784,2013-02-21 00:04:00,
2013-02-20 19:09:00,20.1,12.9,30.22,WSW,256,5.0,9.0,73,0.00,,,0.00,WeatherCatV1.10B1784,2013-02-21 00:09:00,
2013-02-20 19:14:00,20.1,12.9,30.22,West,273,4.0,6.0,73,0.00,,,0.00,WeatherCatV1.10B1784,2013-02-21 00:14:00,
2013-02-20 19:19:00,20.1,12.9,30.22,West,267,3.0,7.0,73,0.00,,,0.00,WeatherCatV1.10B1784,2013-02-21 00:19:00,
2013-02-20 19:24:00,20.2,13.3,30.22,West,259,3.0,4.0,74,0.00,,,0.00,WeatherCatV1.10B1784,2013-02-21 00:24:00,
2013-02-20 19:29:00,20.2,13.3,30.23,West,276,2.0,5.0,74,0.00,,,0.00,WeatherCatV1.10B1784,2013-02-21 00:29:00,
2013-02-20 19:34:00,20.2,13.9,30.23,SW,226,2.0,2.0,76,0.00,,,0.00,WeatherCatV1.10B1784,2013-02-21 00:34:00,
2013-02-20 19:39:00,20.1,13.8,30.23,West,260,4.0,5.0,76,0.00,,,0.00,WeatherCatV1.10B1784,2013-02-21 00:39:00,
2013-02-20 19:44:00,20.0,14.0,30.22,WNW,283,5.0,11.0,77,0.00,,,0.00,WeatherCatV1.10B1784,2013-02-21 00:44:00,
2013-02-20 19:49:00,19.9,13.9,30.22,SW,232,5.0,5.0,77,0.00,,,0.00,WeatherCatV1.10B1784,2013-02-21 00:49:00,
2013-02-20 19:54:00,19.8,14.1,30.22,West,280,2.0,3.0,78,0.00,,,0.00,WeatherCatV1.10B1784,2013-02-21 00:54:00,
2013-02-20 19:59:00,19.8,14.4,30.22,West,276,2.0,5.0,79,0.00,,,0.00,WeatherCatV1.10B1784,2013-02-21 00:59:00,
2013-02-20 20:04:00,19.8,14.4,30.22,WSW,252,4.0,7.0,79,0.00,,,0.00,WeatherCatV1.10B1784,2013-02-21 01:04:00,
2013-02-20 20:09:00,19.8,14.6,30.23,SW,218,7.0,8.0,80,0.00,,,0.00,WeatherCatV1.10B1784,2013-02-21 01:09:00,
2013-02-20 20:14:00,19.9,14.5,30.23,West,262,4.0,12.0,79,0.00,,,0.00,WeatherCatV1.10B1784,2013-02-21 01:14:00,
2013-02-20 20:19:00,20.0,14.8,30.23,WSW,258,2.0,6.0,80,0.00,,,0.00,WeatherCatV1.10B1784,2013-02-21 01:19:00,
2013-02-20 20:24:00,20.1,14.4,30.24,WNW,291,4.0,9.0,78,0.00,,,0.00,WeatherCatV1.10B1784,2013-02-21 01:24:00,
2013-02-20 20:29:00,20.2,13.9,30.24,West,274,5.0,12.0,76,0.00,,,0.00,WeatherCatV1.10B1784,2013-02-21 01:29:00,
2013-02-20 20:34:00,20.3,13.1,30.23,WNW,285,11.0,11.0,73,0.00,,,0.00,WeatherCatV1.10B1784,2013-02-21 01:34:00,
2013-02-20 20:39:00,20.4,12.8,30.23,WSW,253,8.0,14.0,72,0.00,,,0.00,WeatherCatV1.10B1784,2013-02-21 01:39:00,
2013-02-20 20:44:00,20.4,12.5,30.23,WNW,289,10.0,12.0,71,0.00,,,0.00,WeatherCatV1.10B1784,2013-02-21 01:44:00,
2013-02-20 20:49:00,20.5,12.6,30.23,WNW,285,12.0,13.0,71,0.00,,,0.00,WeatherCatV1.10B1784,2013-02-21 01:49:00,
2013-02-20 20:54:00,20.5,12.6,30.23,West,281,7.0,10.0,71,0.00,,,0.00,WeatherCatV1.10B1784,2013-02-21 01:54:00,
2013-02-20 20:59:00,20.5,12.6,30.23,West,271,5.0,11.0,71,0.00,,,0.00,WeatherCatV1.10B1784,2013-02-21 01:59:00,
2013-02-20 21:04:00,20.5,12.6,30.23,WSW,245,1.0,7.0,71,0.00,,,0.00,WeatherCatV1.10B1784,2013-02-21 02:04:00,
2013-02-20 21:09:00,20.6,12.7,30.23,NNW,330,13.0,13.0,71,0.00,,,0.00,WeatherCatV1.10B1784,2013-02-21 02:09:00,
2013-02-20 21:14:00,20.6,12.4,30.23,West,277,13.0,13.0,70,0.00,,,0.00,WeatherCatV1.10B1784,2013-02-21 02:14:00,
2013-02-20 21:19:00,20.7,12.2,30.23,NNW,329,6.0,15.0,69,0.00,,,0.00,WeatherCatV1.10B1784,2013-02-21 02:19:00,
2013-02-20 21:24:00,20.8,12.6,30.24,WSW,242,6.0,18.0,70,0.00,,,0.00,WeatherCatV1.10B1784,2013-02-21 02:24:00,
2013-02-20 21:29:00,20.8,12.6,30.24,West,266,8.0,13.0,70,0.00,,,0.00,WeatherCatV1.10B1784,2013-02-21 02:29:00,
2013-02-20 21:34:00,20.7,12.8,30.24,WNW,293,4.0,11.0,71,0.00,,,0.00,WeatherCatV1.10B1784,2013-02-21 02:34:00,
2013-02-20 21:39:00,20.7,13.1,30.24,West,274,9.0,10.0,72,0.00,,,0.00,WeatherCatV1.10B1784,2013-02-21 02:39:00,
2013-02-20 21:44:00,20.7,13.1,30.24,WNW,300,3.0,5.0,72,0.00,,,0.00,WeatherCatV1.10B1784,2013-02-21 02:44:00,
2013-02-20 21:49:00,20.6,13.7,30.24,WNW,293,4.0,5.0,74,0.00,,,0.00,WeatherCatV1.10B1784,2013-02-21 02:49:00,
2013-02-20 21:54:00,20.5,13.6,30.24,West,262,5.0,7.0,74,0.00,,,0.00,WeatherCatV1.10B1784,2013-02-21 02:54:00,
2013-02-20 21:59:00,20.5,14.2,30.24,WSW,243,7.0,8.0,76,0.00,,,0.00,WeatherCatV1.10B1784,2013-02-21 02:59:00,
2013-02-20 22:04:00,20.3,14.8,30.24,West,277,2.0,6.0,79,0.00,,,0.00,WeatherCatV1.10B1784,2013-02-21 03:04:00,
2013-02-20 22:09:00,20.1,15.2,30.24,West,274,3.0,5.0,81,0.00,,,0.00,WeatherCatV1.10B1784,2013-02-21 03:09:00,
2013-02-20 22:14:00,20.1,15.5,30.24,WNW,282,4.0,8.0,82,0.00,,,0.00,WeatherCatV1.10B1784,2013-02-21 03:14:00,
2013-02-20 22:19:00,20.0,16.0,30.24,West,259,3.0,8.0,84,0.00,,,0.00,WeatherCatV1.10B1784,2013-02-21 03:19:00,
2013-02-20 22:24:00,19.9,16.1,30.24,WSW,250,5.0,6.0,85,0.00,,,0.00,WeatherCatV1.10B1784,2013-02-21 03:24:00,
2013-02-20 22:29:00,19.8,16.0,30.24,WSW,248,4.0,4.0,85,0.00,,,0.00,WeatherCatV1.10B1784,2013-02-21 03:29:00,
2013-02-20 22:34:00,19.9,16.4,30.24,West,269,2.0,6.0,86,0.00,,,0.00,WeatherCatV1.10B1784,2013-02-21 03:34:00,
2013-02-20 22:39:00,19.9,16.1,30.24,West,276,5.0,5.0,85,0.00,,,0.00,WeatherCatV1.10B1784,2013-02-21 03:39:00,
2013-02-20 22:44:00,19.8,16.0,30.24,West,259,3.0,5.0,85,0.00,,,0.00,WeatherCatV1.10B1784,2013-02-21 03:44:00,
2013-02-20 22:49:00,19.8,16.0,30.24,West,262,9.0,9.0,85,0.00,,,0.00,WeatherCatV1.10B1784,2013-02-21 03:49:00,
2013-02-20 22:54:00,19.7,15.7,30.24,WSW,256,2.0,5.0,84,0.00,,,0.00,WeatherCatV1.10B1784,2013-02-21 03:54:00,
2013-02-20 22:59:00,19.6,15.6,30.24,WSW,257,2.0,5.0,84,0.00,,,0.00,WeatherCatV1.10B1784,2013-02-21 03:59:00,
2013-02-20 23:04:00,19.6,15.3,30.23,WSW,248,4.0,8.0,83,0.00,,,0.00,WeatherCatV1.10B1784,2013-02-21 04:04:00,
2013-02-20 23:09:00,19.6,15.3,30.23,West,274,2.0,6.0,83,0.00,,,0.00,WeatherCatV1.10B1784,2013-02-21 04:09:00,
2013-02-20 23:14:00,19.5,15.2,30.23,West,277,5.0,7.0,83,0.00,,,0.00,WeatherCatV1.10B1784,2013-02-21 04:14:00,
2013-02-20 23:19:00,19.4,15.4,30.23,West,262,4.0,6.0,84,0.00,,,0.00,WeatherCatV1.10B1784,2013-02-21 04:19:00,
2013-02-20 23:24:00,19.4,15.4,30.23,West,276,5.0,6.0,84,0.00,,,0.00,WeatherCatV1.10B1784,2013-02-21 04:24:00,
2013-02-20 23:29:00,19.3,15.3,30.23,West,273,1.0,5.0,84,0.00,,,0.00,WeatherCatV1.10B1784,2013-02-21 04:29:00,
2013-02-20 23:34:00,19.3,15.3,30.23,West,264,4.0,4.0,84,0.00,,,0.00,WeatherCatV1.10B1784,2013-02-21 04:34:00,
2013-02-20 23:39:00,19.4,15.4,30.23,WNW,302,2.0,3.0,84,0.00,,,0.00,WeatherCatV1.10B1784,2013-02-21 04:39:00,
2013-02-20 23:44:00,19.4,15.4,30.22,NW,304,3.0,5.0,84,0.00,,,0.00,WeatherCatV1.10B1784,2013-02-21 04:44:00,
2013-02-20 23:49:00,19.5,15.2,30.22,NW,309,2.0,6.0,83,0.00,,,0.00,WeatherCatV1.10B1784,2013-02-21 04:49:00,
2013-02-20 23:54:00,19.6,15.3,30.22,WSW,255,3.0,6.0,83,0.00,,,0.00,WeatherCatV1.10B1784,2013-02-21 04:54:00,
2013-02-20 23:59:00,19.6,15.0,30.22,WNW,294,4.0,6.0,82,0.00,,,0.00,WeatherCatV1.10B1784,2013-02-21 04:59:00,